EHI
0 0 0 0 0 0 0 0 0 0 0 0 0 0 0 0 0 0 0 0 0 0 0 0 0 0 0 0 0 0 0 0 0 0 0 0 0 0
0 0 0 0 0 0 0 0 0 0 0 0 0 0 0 0 0 0 0 0 0 0 0 0 0 0 0 0 0 0 0 0 0 0 0 0 0 0
0 0 0 0 0 0 0 0 0 0 0 0 0 0 0 0 0 0 0 0 0 0 0 0 0 0 0 0 0 0 0 0 0 0 0 0 0 0
0 0 0 0 0 0 0 0 0 0 0 0 0 0 0 0 0 0 0 0 0 0 0 0 0 0 0 0 0 0 0 0 0 0 0 0 0 0
0 0 0 0 0 0 0 0 0 0 0 0 0 0 0 0 0 0 0 0 0 0 0 0 0 0 0 0 0 0 0 0 0 0 0 0 0 0
0 0 0 0 0 0 0 0 0 0 0 0 0 0 0 0 0 0 0 0 0 0 0 0 0 0 0 0 0 0 0 0 0 0 0 0 0 0
0 0 0 0 0 0 0 0 0 0 0 0 0 0 0 0 0 0 0 0 0 0 0 0 0 0 0 0 0 0 0 0 0 0 0 0 0 0
0 0 0 0 0 0 0 0 0 0 0 0 0 0 0 0 0 0 0 0 0 0 0 0 0 0 0 0 0 0 0 0 0 0 0 0 0 0
0 0 0 0 0 0 0 0 0 0 0 0 0 0 0 0 0 0 0 0 0 0 0 0 0 0 0 0 0 0 0 0 0 0 0 0 0 0
0 0 0 0 0 0 0 0 0 0 0 0 0 0 0 0 0 0 0 0 0 0 0 0 0 0 0 0 0 0 0 0 0 0 0 0 0 0
0 0 0 0 0 0 0 0 0 0 0 0 0 0 0 0 0 0 0 0 0 0 0 0 0 0 0 0 0 0 0 0 0 0 0 0 0 0
0 0 0 0 0 0 0 0 0 0 0 0 0 0 0 0 0 0 0 0 0 0 0 0 0 0 0 0 0 0 0 0 0 0 0 0 0 0
0 0 0 0 0 0 0 0 0 0 0 0 0 0 0 0 0 0 0 0 0 0 0 0 0 0 0 0 0 0 0 0 0 0 0 0 0 0
0 0 0 0 0 0 0 0 0 0 0 0 0 0 0 0 0 0 0 0 0 0 0 0 0 0 0 0 0 0 0 0 0 0 0 0 0 0
0 0 0 0 0 0 0 0 0 0 0 0 0 0 0 0 0 0 0 0 0 0 0 0 0 0 0 0 0 0 0 0 0 0 0 0 0 0
0 0 0 0 0 0 0 0 0 0 0 0 0 0 0 0 0 0 0 0 0 0 0 0 0 0 0 0 0 0 0 0 0 0 0 0 0 0
0 0 0 0 0 0 0 0 0 0 0 0 0 0 0 0 0 0 0 0 0 0 0 0 0 0 0 0 0 0 0 0 0 0 0 0 0 0
0 0 0 0 0 0 0 0 0 0 0 0 0 0 0 0 0 0 0 0 0 0 0 0 0 0 0 0 0 0 0 0 0 0 0 0 0 0
0 0 0 0 0 0 0 0 0 0 0 0 0 0 0 0 0 0 0 0 0 0 0 0 0 0 0 0 0 0 0 0 0 0 0 0 0 0
0 0 0 0 0 0 0 0 0 0 0 0 0 0 0 0 0 0 0 0 0 0 0 0 0 0 0 0 0 0 0 0 0 0 0 0 0 0
0 0 0 0 0 0 0 0 0 0 0 0 0 0 0 0 0 0 0 0 0 0 0 0 0 0 0 0 0 0 0 0 0 0 0 0 0 0
0 0 0 0 0 0 0 0 0 0 0 0 0 0 0 0 0 0 0 0 0 0 0 0 0 0 0 0 0 0 0 0 0 0 0 0 0 0
0 0 0 0 0 0 0 0 0 0 0 0 0 0 0 0 0 0 0 0 0 0 0 0 0 0 0 0 0 0 0 0 0 0 0 0 0 0
Wind_Speed
2 2 2 2 2 2 2 3 3 3 3 2 2 1 2 2 5 3 3 8 10 10 10 10 11 11 12 12 13 14 14 14 14 14 15 16 16 15
2 3 3 2 2 2 2 2 3 3 4 2 2 2 3 3 6 3 4 9 9 10 11 11 11 11 12 13 13 13 14 13 13 14 15 15 16 16
2 3 4 3 2 2 2 2 2 2 4 4 2 2 3 3 4 3 4 4 4 10 11 11 11 11 12 13 13 13 14 14 14 14 15 15 16 16
3 3 4 3 4 3 2 3 3 3 3 5 4 2 3 3 3 4 4 4 4 9 10 11 11 12 12 12 13 13 14 14 13 14 15 15 16 17
3 3 4 4 3 3 3 3 3 3 3 3 4 2 2 2 3 3 4 3 4 6 8 9 11 12 13 13 13 13 13 13 13 14 14 15 16 16
3 3 4 3 4 4 4 4 3 3 3 3 4 3 2 2 2 3 4 3 4 4 6 7 10 12 13 13 14 13 13 13 13 14 14 14 14 16
3 3 3 4 5 4 3 3 3 2 2 3 3 3 2 2 3 2 4 4 4 2 4 5 5 5 6 10 12 13 13 13 13 14 14 14 14 15
2 3 3 3 3 5 5 4 3 3 3 3 3 4 4 3 3 3 3 4 4 2 4 6 4 5 5 4 10 13 13 13 14 14 13 13 14 14
2 2 3 3 3 2 4 5 5 6 5 3 4 4 4 3 3 4 4 4 5 4 4 6 3 5 5 6 12 13 12 13 13 14 14 14 14 15
2 2 3 3 3 2 2 2 2 3 4 3 3 4 4 3 4 4 5 5 5 4 3 4 4 4 6 5 10 11 12 13 14 14 14 14 15 15
2 2 3 3 6 4 1 2 2 3 4 5 5 4 6 6 4 2 2 3 5 3 1 2 3 5 5 4 6 10 12 14 14 15 15 15 14 14
2 2 4 5 6 5 2 2 3 3 2 3 3 4 3 4 5 2 2 3 4 4 2 2 3 4 5 3 3 5 7 11 14 15 15 15 15 9
2 2 3 6 6 5 4 2 4 3 1 2 2 2 2 2 2 2 2 3 4 4 3 2 3 3 4 6 5 4 4 5 6 8 11 14 15 11
2 2 2 5 5 6 4 4 5 4 1 1 1 2 2 2 3 3 3 3 3 5 5 4 3 4 5 6 6 5 5 5 5 6 6 10 12 13
1 3 3 4 4 3 4 5 4 2 1 1 2 2 2 3 3 3 3 3 3 4 4 4 4 4 4 6 6 6 6 5 5 5 5 6 6 6
1 2 3 3 3 3 3 3 2 1 1 1 2 2 2 2 2 2 3 4 3 3 3 3 4 4 5 6 6 7 6 5 5 6 6 6 5 5
0 0 1 1 1 2 2 1 1 1 1 1 2 2 3 3 3 3 3 3 3 4 5 4 4 4 6 6 5 6 6 6 5 6 6 6 6 5
0 0 1 1 1 2 2 2 2 2 2 2 2 2 3 3 3 3 3 3 3 4 4 4 4 4 4 3 5 5 5 5 6 6 5 5 7 6
1 1 1 2 2 2 2 2 2 2 2 2 2 3 3 3 3 4 3 3 4 4 4 3 3 3 5 6 5 3 4 6 6 5 5 5 6 7
1 1 2 2 1 1 2 2 2 2 2 2 2 2 3 3 3 4 3 4 4 4 4 3 3 3 4 6 6 6 7 6 5 6 6 5 5 7
1 1 1 1 1 1 2 2 2 2 2 2 2 3 3 3 3 4 3 5 4 4 4 5 5 7 5 4 5 5 5 7 7 5 5 5 5 5
1 1 1 1 1 1 2 2 2 2 3 2 2 3 3 3 3 4 3 4 4 4 5 5 5 4 3 3 5 6 7 7 7 9 7 5 3 4
2 2 2 1 1 1 2 2 2 3 3 3 2 3 3 3 3 3 3 3 4 4 4 5 4 3 3 4 5 5 6 7 6 6 5 7 7 8
Wind_Direction
210 212 222 236 238 239 235 226 236 267 268 256 259 261 285 286 301 303 298 305 311 312 313 311 311 311 310 310 308 306 305 303 303 303 303 300 299 299
217 213 226 238 240 240 238 239 235 238 261 261 250 266 287 297 304 304 290 308 310 312 311 309 310 310 311 310 309 308 306 302 301 300 298 299 299 297
234 224 235 237 239 244 243 242 237 228 252 275 263 262 259 278 299 295 288 285 293 307 308 307 308 309 310 310 310 309 306 303 300 299 296 295 297 297
244 239 244 240 234 231 226 227 235 234 235 269 277 264 260 272 285 294 301 301 293 304 307 306 308 310 312 310 308 308 308 304 301 300 299 295 294 295
243 242 250 238 229 224 221 226 234 241 232 249 275 272 271 282 303 304 300 295 301 305 304 304 309 312 312 310 308 307 307 305 303 301 300 297 294 294
255 249 248 226 233 229 227 230 228 232 238 248 264 273 279 289 297 308 313 309 306 307 302 309 310 311 309 309 310 308 306 304 303 304 304 300 297 294
269 261 254 245 254 251 245 231 221 226 243 253 268 279 283 302 302 300 299 307 302 285 303 307 306 304 305 308 311 311 310 309 307 307 307 307 304 298
272 284 281 273 279 288 291 289 274 254 251 249 262 269 278 283 295 293 300 312 302 293 307 300 295 292 299 299 307 311 311 311 311 309 306 306 308 306
271 279 285 287 290 284 285 292 290 288 279 258 258 264 271 271 275 282 283 283 277 280 292 287 284 287 291 301 307 308 312 314 314 313 310 309 309 308
267 267 269 281 273 259 247 274 277 286 288 271 247 260 267 265 254 259 265 276 278 276 259 273 282 286 297 297 304 308 313 316 316 316 314 311 310 308
275 279 282 278 291 290 262 270 290 294 306 307 301 302 303 305 302 297 294 298 299 289 251 263 289 303 295 282 296 309 313 316 316 315 314 313 312 310
280 285 295 296 301 302 261 247 275 285 298 312 317 319 319 313 315 302 276 286 295 291 280 288 289 316 306 287 291 303 308 310 313 314 312 312 312 309
269 273 283 302 308 314 307 277 287 307 306 289 296 308 319 314 307 298 279 265 275 273 278 291 287 293 281 296 299 293 296 303 310 308 308 309 309 307
258 267 280 310 324 326 324 319 322 329 334 312 318 319 319 315 308 301 289 274 260 264 273 272 271 282 290 292 294 303 305 303 303 301 301 307 307 306
264 279 295 319 333 334 334 338 339 342 336 321 314 307 302 296 300 303 302 298 290 277 274 269 269 277 275 278 287 295 305 306 301 301 306 307 305 308
302 314 331 345 355 342 340 344 342 327 315 299 304 304 306 308 308 309 308 316 312 303 289 281 277 273 276 275 278 288 294 296 306 309 309 305 304 303
268 53 16 358 350 342 333 334 338 335 331 317 312 314 315 316 312 314 304 307 298 302 313 313 299 280 265 268 280 284 291 293 296 305 309 306 303 304
295 199 286 294 296 303 311 318 321 321 315 311 312 312 314 314 313 315 312 305 307 308 310 315 325 327 319 286 252 276 291 294 301 305 302 302 306 311
216 243 265 278 286 293 293 291 293 297 300 305 308 312 312 311 310 311 315 315 311 309 308 314 324 327 321 314 300 275 292 302 306 305 301 294 299 306
241 250 262 265 267 270 278 284 292 300 304 304 305 306 306 307 310 310 310 309 310 311 313 315 313 307 293 292 294 295 295 294 298 302 303 296 291 294
263 262 259 256 260 264 273 280 288 293 295 296 297 300 301 301 302 304 305 308 309 309 309 306 297 305 293 291 293 297 299 303 300 295 303 304 307 315
254 257 266 268 270 269 277 284 291 298 301 298 297 296 294 290 292 297 302 304 301 298 296 298 308 315 311 301 298 301 307 314 317 314 303 287 293 309
249 253 259 262 264 270 275 282 288 292 295 296 297 297 298 297 297 298 300 300 303 306 310 312 317 315 304 295 297 303 311 318 323 332 329 322 305 293